[[{"header":{"parameterUnit":"m.s-1","parameterCategory":2,"la1":30.2991,"la2":30.254,"lo1":-89.0895,"lo2":-89.0444,"dy":0.0017,"dx":0.0017,"nx":28,"ny":28,"refTime":"2024-10-12T21:00:00:Z","depth":"0","parameterNumber":2,"parameterNumberName":"U-component_of_CURRENTS"},"data":[0,0,0,0,0,0,0,0,0,0,0,0,0,0,0,0,0,0,0,0,0,0,0,0,0,0,0,0,0,0,0,0,0,0,0,0,0,0,0,0,0,0,0,0,0,0,0,0,0,0,0,0,0,0,0,0,0,0,0.231,0.2309,0,0.2148,0.2145,0.2143,0.204,0.204,0.204,0.204,0.1815,0.1809,0.1803,0,0,0,0,0,0,0,0,0,0,0,0,0,0.2369,0.2369,0.231,0.2309,0.2308,0.2148,0.2145,0.2142,0.204,0.204,0.204,0.204,0.1817,0.1809,0.1802,0,0,0,0,0,0,0,0,0,0,0,0,0,0.2282,0.2369,0.2311,0.2244,0.2236,0.2149,0.2145,0.2141,0.204,0.204,0.204,0.204,0.1819,0.181,0.1801,0.174,0,0,0.1773,0.1769,0,0,0,0,0,0,0,0,0.2287,0.2279,0.2255,0.2248,0.224,0.2121,0.2083,0.2007,0.204,0.2106,0.204,0.2041,0.1917,0.1899,0.1858,0.1729,0.172,0.1772,0.1767,0.1763,0.176,0,0,0,0,0,0,0,0.2293,0.2284,0.2238,0.2254,0.2245,0.2166,0.2155,0.2067,0.2005,0.21,0.2094,0.2089,0.1911,0.1867,0.1852,0.1716,0.1772,0.1764,0.1758,0.1755,0.1626,0.1628,0,0,0,0,0,0,0.2338,0.2291,0.2243,0.2234,0.2274,0.2166,0.2153,0.2153,0.2007,0.1987,0.2089,0.2085,0.1882,0.1862,0.1843,0.1834,0.1763,0.1754,0.1749,0.1624,0.1627,0.1629,0,0,0,0,0,0,0.234,0.2336,0.225,0.2264,0.2249,0.2167,0.2166,0.215,0.2113,0.2,0.1978,0.2073,0.1882,0.1856,0.1782,0.1821,0.175,0.1741,0.1622,0.1625,0.1628,0.1768,0,0,0,0,0,0,0.2342,0.2337,0.2338,0.2268,0.225,0.2211,0.2166,0.2146,0.2113,0.2106,0.1979,0.1958,0.188,0.1796,0.1773,0.1808,0.1734,0.1619,0.1623,0.1627,0.1761,0.1776,0.1788,0,0,0,0,0,0.2345,0.234,0.2339,0.2332,0.2259,0.2212,0.2194,0.213,0.2113,0.2097,0.2021,0.1962,0.1807,0.1789,0.1761,0.1795,0.1617,0.1622,0.1627,0.1755,0.1773,0.1788,0,0,0,0,0,0,0.233,0.2328,0.2325,0.2311,0.2279,0.2198,0.2171,0.2142,0.2066,0.2059,0.1957,0.1929,0.1893,0.1822,0.1806,0.1776,0.1715,0.1714,0.1822,0.1838,0.1851,0.1825,0.1727,0,0,0,0,0,0.2343,0.2355,0.2329,0.2313,0.2308,0.2248,0.2217,0.2185,0.2119,0.2086,0.2007,0.1936,0.1889,0.1846,0.1783,0.1737,0.1694,0.1753,0.1767,0.1779,0.1743,0.1754,0.1766,0.1645,0.1645,0.1645,0,0,0.2324,0.233,0.2329,0.2314,0.2281,0.2261,0.2227,0.2195,0.2172,0.2072,0.201,0.1973,0.189,0.1857,0.1836,0.1799,0.1798,0.1785,0.1796,0.1751,0.176,0.1772,0.1782,0.1648,0.1647,0.1647,0,0,0.2302,0.2314,0.2321,0.2312,0.2297,0.2267,0.2273,0.2218,0.219,0.2138,0.209,0.2071,0.1963,0.1929,0.1896,0.1943,0.1879,0.1948,0.1976,0.1991,0.2,0.2007,0.1996,0.2001,0.1946,0.1947,0.1947,0,0.2276,0.2288,0.2305,0.231,0.2295,0.2282,0.2266,0.2239,0.2165,0.2141,0.2137,0.2044,0.1996,0.1963,0.1996,0.1972,0.1958,0.1921,0.2008,0.2014,0.202,0.2006,0.201,0.1954,0.1953,0.1952,0.1952,0,0.2261,0.2271,0.2271,0.2289,0.2277,0.226,0.2252,0.2236,0.2221,0.2187,0.2165,0.2122,0.2057,0.2086,0.2044,0.2072,0.2045,0.2036,0.1966,0.204,0.2021,0.2023,0.1964,0.1962,0.196,0.1958,0,0,0.2177,0.2251,0.2244,0.2254,0.2267,0.2246,0.2245,0.2217,0.2195,0.2185,0.215,0.2144,0.2134,0.2098,0.2087,0.2111,0.2173,0.2093,0.209,0.2078,0.219,0.204,0.2026,0.219,0.2191,0.2191,0.2171,0,0.2144,0.2173,0.2209,0.2196,0.2199,0.2212,0.22,0.2186,0.2172,0.214,0.215,0.211,0.2138,0.2121,0.216,0.2142,0.2178,0.2176,0.2117,0.2114,0.197,0.2023,0.1862,0.1817,0.2172,0.2172,0.2172,0,0.2095,0.2129,0.2136,0.2164,0.2162,0.215,0.2129,0.2118,0.2102,0.2093,0.2091,0.2079,0.2088,0.2121,0.2147,0.2145,0.2176,0.219,0.219,0.1984,0.1965,0.1794,0.1806,0.1692,0.2174,0.2173,0.2173,0,0.2018,0.2057,0.2067,0.2075,0.2111,0.2099,0.2098,0.2088,0.2064,0.2051,0.2024,0.2046,0.2023,0.2082,0.2105,0.213,0.2134,0.2168,0.2069,0.2059,0.1865,0.1835,0.1744,0.2216,0.2216,0.2216,0.2216,0,0.1961,0.195,0.2032,0.203,0.2007,0.2047,0.2004,0.2008,0.1996,0.1949,0.1986,0.1948,0.2018,0.2021,0.2083,0.2044,0.2115,0.2052,0.2038,0.1912,0.1887,0.173,0.1718,0.2215,0.2215,0.2215,0.2215,0,0.1855,0.1921,0.1921,0.1969,0.1973,0.1947,0.1941,0.1909,0.1914,0.1856,0.1845,0.1855,0.1843,0.1902,0.1959,0.1962,0.1885,0.1967,0.1791,0.1754,0.1517,0.1519,0.1388,0.1373,0.183,0.1826,0.1822,0,0.18,0.1801,0.1857,0.185,0.1863,0.1844,0.1824,0.185,0.1818,0.1786,0.1745,0.1722,0.1692,0.1688,0.1689,0.1718,0.1738,0.1572,0.1587,0.1448,0.1444,0.1467,0.147,0.1414,0.1408,0.1403,0.1398,0,0.1676,0.1708,0.1726,0.1736,0.1723,0.1708,0.1687,0.1662,0.1675,0.1629,0.1571,0.1549,0.1505,0.1417,0.1414,0.1426,0.1417,0.146,0.1377,0.1133,0.1092,0.1088,0.1482,0.1352,0.1356,0.136,0.1362,0.1364,0.1561,0.156,0.1608,0.1605,0.1596,0.1576,0.1537,0.152,0.1472,0.1395,0.1413,0.1321,0.1195,0.1146,0.114,0.0924,0.1104,0.0867,0.0893,0.0938,0.0868,0.1126,0.0938,0.094,0.0942,0.0944,0.0946,0,0.1429,0.1471,0.1468,0.1484,0.145,0.148,0.1443,0.1393,0.1321,0.1247,0.1183,0.0968,0.08,0.0703,0.0454,0.0362,0.0443,0.0331,0.0344,0.0394,0.0644,0.0563,0.021,0.021,0.021,0.021,0.021,0.021,0.1364,0.1362,0.1401,0.1352,0.1347,0.1283,0.1257,0.1188,0.1124,0.094,0.079,0.0733,0.0474,0.0107,-0.0134,-0.0114,-0.0065,-0.0112,0.0015,0.0165,0.0218,0.0269,0.0189,-0.0237,-0.0238,-0.0274,-0.0275,-0.0276]},{"header":{"parameterUnit":"m.s-1","parameterCategory":2,"la1":30.2991,"la2":30.254,"lo1":-89.0895,"lo2":-89.0444,"dy":0.0017,"dx":0.0017,"nx":28,"ny":28,"refTime":"2024-10-12T21:00:00:Z","depth":"0","parameterNumber":3,"parameterNumberName":"V-component_of_CURRENTS"},"data":[0,0,0,0,0,0,0,0,0,0,0,0,0,0,0,0,0,0,0,0,0,0,0,0,0,0,0,0,0,0,0,0,0,0,0,0,0,0,0,0,0,0,0,0,0,0,0,0,0,0,0,0,0,0,0,0,0,0,-0.0466,-0.0465,0,-0.0384,-0.0383,-0.0382,-0.0337,-0.0337,-0.0337,-0.0336,-0.0347,-0.0348,-0.0348,0,0,0,0,0,0,0,0,0,0,0,0,0,-0.0522,-0.0522,-0.0466,-0.0465,-0.0464,-0.0384,-0.0383,-0.0381,-0.0337,-0.0337,-0.0337,-0.0336,-0.0347,-0.0348,-0.0348,0,0,0,0,0,0,0,0,0,0,0,0,0,-0.0475,-0.0522,-0.0466,-0.0432,-0.0428,-0.0384,-0.0383,-0.0381,-0.0337,-0.0337,-0.0337,-0.0336,-0.0347,-0.0348,-0.0348,-0.0355,0,0,-0.035,-0.035,0,0,0,0,0,0,0,0,-0.0478,-0.0473,-0.0438,-0.0434,-0.043,-0.037,-0.0406,-0.0377,-0.0337,-0.0371,-0.0336,-0.0336,-0.0364,-0.0363,-0.0346,-0.0355,-0.0356,-0.035,-0.035,-0.0351,-0.0351,0,0,0,0,0,0,0,-0.0481,-0.0476,-0.0433,-0.0437,-0.0432,-0.04,-0.0393,-0.04,-0.0371,-0.0368,-0.0365,-0.0356,-0.0362,-0.0346,-0.0347,-0.0356,-0.035,-0.0351,-0.0351,-0.0351,-0.0238,-0.0235,0,0,0,0,0,0,-0.0495,-0.0479,-0.0436,-0.0431,-0.0454,-0.0399,-0.0392,-0.039,-0.0369,-0.0365,-0.0356,-0.0354,-0.0345,-0.0346,-0.0347,-0.0281,-0.0351,-0.0351,-0.0352,-0.0242,-0.0238,-0.0234,0,0,0,0,0,0,-0.0496,-0.0492,-0.0439,-0.0453,-0.0444,-0.0399,-0.0396,-0.0388,-0.0369,-0.0359,-0.0356,-0.0346,-0.0345,-0.0346,-0.032,-0.0284,-0.0351,-0.0352,-0.0246,-0.0241,-0.0236,-0.0196,0,0,0,0,0,0,-0.0499,-0.0493,-0.0498,-0.0454,-0.0443,-0.0418,-0.0396,-0.0387,-0.0364,-0.0361,-0.035,-0.035,-0.0345,-0.0318,-0.032,-0.0286,-0.0352,-0.025,-0.0243,-0.0237,-0.0201,-0.019,-0.018,0,0,0,0,0,-0.0501,-0.0509,-0.0499,-0.0494,-0.0452,-0.0418,-0.041,-0.0376,-0.0364,-0.0359,-0.0324,-0.035,-0.0279,-0.0317,-0.032,-0.0285,-0.0253,-0.0245,-0.0238,-0.0206,-0.0192,-0.018,0,0,0,0,0,0,-0.0532,-0.0503,-0.0492,-0.049,-0.0459,-0.0411,-0.0404,-0.0378,-0.0346,-0.0344,-0.0329,-0.0326,-0.0281,-0.0283,-0.0325,-0.0224,-0.0262,-0.0255,-0.0237,-0.0224,-0.0214,-0.0208,-0.0353,0,0,0,0,0,-0.0543,-0.0543,-0.0505,-0.0503,-0.0492,-0.0448,-0.0431,-0.0407,-0.0371,-0.0357,-0.034,-0.0303,-0.0251,-0.0241,-0.0212,-0.0182,-0.0163,-0.0148,-0.0138,-0.013,-0.0119,-0.0017,0.0003,-0.0209,-0.0209,-0.021,0,0,-0.0551,-0.0538,-0.0536,-0.051,-0.0485,-0.0454,-0.0438,-0.0415,-0.0374,-0.0367,-0.0317,-0.0281,-0.0233,-0.0174,-0.0154,-0.0176,-0.0064,-0.012,-0.0114,-0.0108,-0.0007,0.0014,0.0032,-0.0204,-0.0205,-0.0206,0,0,-0.0562,-0.056,-0.0558,-0.0534,-0.0502,-0.0469,-0.0464,-0.0417,-0.0384,-0.0336,-0.0289,-0.0221,-0.0189,-0.0114,-0.0076,0.0008,-0.0012,0.0011,0.006,0.016,0.0177,0.0193,0.0206,0.0223,0.0016,0.0016,0.0016,0,-0.0574,-0.056,-0.0551,-0.0535,-0.0505,-0.0475,-0.0445,-0.0406,-0.035,-0.0302,-0.032,-0.0166,-0.0144,-0.001,0.0029,0.003,0.0051,-0.0003,0.0171,0.0187,0.0203,0.0213,0.0231,0.0019,0.0018,0.0018,0.0018,0,-0.0571,-0.0555,-0.0552,-0.0517,-0.0488,-0.0463,-0.0406,-0.0368,-0.033,-0.0273,-0.0157,-0.0095,0.0003,0.0033,0.0049,0.0191,0.0155,0.0168,0.0127,0.0226,0.023,0.0248,0.0023,0.0022,0.0021,0.002,0,0,-0.0596,-0.0557,-0.0554,-0.0522,-0.0473,-0.0441,-0.0377,-0.0289,-0.022,-0.016,-0.0051,0.0063,0.01,0.015,0.0197,0.0284,0.0394,0.0266,0.027,0.0257,0.0555,0.048,0.0491,0.0435,0.044,0.0443,0.0497,0,-0.0587,-0.0553,-0.053,-0.0471,-0.0438,-0.0385,-0.032,-0.0238,-0.0168,-0.0066,0.0041,0.014,0.0146,0.0196,0.0294,0.0376,0.045,0.0374,0.048,0.0482,0.0389,0.0515,0.0516,0.0563,0.0514,0.0517,0.052,0,-0.0577,-0.0551,-0.0504,-0.0423,-0.0403,-0.0363,-0.0241,-0.018,-0.0038,0.0018,0.014,0.0205,0.0353,0.0335,0.0523,0.047,0.0517,0.0567,0.0571,0.0504,0.0444,0.0469,0.0597,0.0623,0.0547,0.0545,0.0543,0,-0.0576,-0.0521,-0.0479,-0.0455,-0.037,-0.0325,-0.0272,-0.0148,-0.0078,0.0071,0.0132,0.0304,0.0381,0.0503,0.058,0.0565,0.0756,0.0749,0.0724,0.0715,0.074,0.0727,0.0895,0.0893,0.0893,0.0893,0.0893,0,-0.0559,-0.0521,-0.0478,-0.045,-0.038,-0.0324,-0.0228,-0.0153,-0.0033,0.006,0.017,0.0269,0.0431,0.0544,0.0615,0.0711,0.0785,0.0756,0.0756,0.0748,0.0735,0.0775,0.0783,0.0895,0.0895,0.0894,0.0894,0,-0.0551,-0.0529,-0.0473,-0.0402,-0.0378,-0.0327,-0.0232,-0.0158,-0.0062,0.0061,0.0103,0.0265,0.0403,0.0528,0.0709,0.0736,0.0865,0.0852,0.0779,0.0771,0.0752,0.0761,0.0926,0.096,0.0847,0.0846,0.0845,0,-0.0537,-0.0515,-0.0454,-0.0424,-0.0393,-0.0322,-0.0269,-0.0176,-0.0105,0.0054,0.0115,0.0265,0.0384,0.0585,0.0693,0.0805,0.085,0.0824,0.0819,0.0777,0.079,0.0805,0.0824,0.0852,0.0852,0.0851,0.0851,0,-0.0506,-0.0497,-0.0459,-0.0412,-0.0365,-0.03,-0.0227,-0.0184,-0.0073,0.0018,0.0144,0.0243,0.0426,0.0575,0.069,0.0751,0.0847,0.081,0.0849,0.0883,0.0839,0.086,0.0717,0.0845,0.0846,0.0846,0.0846,0.0847,-0.0485,-0.0461,-0.043,-0.0383,-0.0337,-0.0278,-0.0225,-0.0155,-0.0064,0.0072,0.0142,0.0289,0.046,0.0646,0.0708,0.0792,0.0818,0.0814,0.0844,0.0872,0.0885,0.0668,0.0742,0.0742,0.0742,0.0742,0.0742,0,-0.0448,-0.0432,-0.0396,-0.0341,-0.0301,-0.0274,-0.0192,-0.0137,-0.0049,0.0059,0.0167,0.0356,0.0527,0.0666,0.0801,0.0838,0.0887,0.0857,0.0927,0.0959,0.0852,0.0828,0.0826,0.0826,0.0826,0.0826,0.0826,0.0826,-0.042,-0.0392,-0.0382,-0.0322,-0.0287,-0.0219,-0.0175,-0.01,-0.0021,0.0117,0.0229,0.0323,0.047,0.0749,0.0882,0.0903,0.0995,0.0978,0.1023,0.0969,0.0968,0.0968,0.0951,0.0975,0.0975,0.1144,0.1145,0.1146]}],[{"header":{"parameterUnit":"m.s-1","parameterCategory":2,"la1":30.2991,"la2":30.254,"lo1":-89.0895,"lo2":-89.0444,"dy":0.0017,"dx":0.0017,"nx":28,"ny":28,"refTime":"2024-10-12T21:00:00:Z","depth":"2","parameterNumber":2,"parameterNumberName":"U-component_of_CURRENTS"},"data":[0,0,0,0,0,0,0,0,0,0,0,0,0,0,0,0,0,0,0,0,0,0,0,0,0,0,0,0,0,0,0,0,0,0,0,0,0,0,0,0,0,0,0,0,0,0,0,0,0,0,0,0,0,0,0,0,0,0,0.0428,0.0428,0,0.0425,0.0426,0.0426,0.0542,0.0544,0.0547,0.0549,0.065,0.0651,0.0651,0,0,0,0,0,0,0,0,0,0,0,0,0,0.0578,0.0575,0.0428,0.0427,0.0427,0.0425,0.0426,0.0426,0.0541,0.0544,0.0548,0.0551,0.065,0.0651,0.0651,0,0,0,0,0,0,0,0,0,0,0,0,0,0.0542,0.0574,0.0428,0.0481,0.0485,0.0425,0.0426,0.0426,0.054,0.0544,0.0548,0.0552,0.065,0.0651,0.0651,0.0574,0,0,0.0652,0.0652,0,0,0,0,0,0,0,0,0.0544,0.0537,0.0473,0.0477,0.0482,0.0484,0.0516,0.0479,0.0539,0.0524,0.0549,0.0554,0.0598,0.0603,0.0599,0.0578,0.0583,0.0652,0.0652,0.0652,0.0652,0,0,0,0,0,0,0,0.0546,0.0538,0.0432,0.0472,0.0477,0.052,0.0519,0.0509,0.0545,0.0526,0.0533,0.0524,0.0603,0.0598,0.0602,0.0584,0.0652,0.0652,0.0653,0.0653,0.0648,0.0647,0,0,0,0,0,0,0.0529,0.0539,0.0432,0.0431,0.0518,0.0513,0.0513,0.0483,0.0543,0.0553,0.0521,0.0529,0.0596,0.0602,0.0607,0.063,0.0652,0.0653,0.0653,0.0648,0.0648,0.0647,0,0,0,0,0,0,0.0532,0.0519,0.0432,0.0484,0.0475,0.0506,0.0472,0.0481,0.051,0.0537,0.0552,0.0545,0.0599,0.0606,0.0629,0.0632,0.0653,0.0653,0.0648,0.0648,0.0648,0.0607,0,0,0,0,0,0,0.0536,0.0519,0.0503,0.0481,0.0471,0.0397,0.0468,0.0478,0.0494,0.0507,0.0561,0.0573,0.0603,0.0628,0.0629,0.0632,0.0653,0.0649,0.0648,0.0648,0.0608,0.0605,0.0602,0,0,0,0,0,0.0541,0.0479,0.0502,0.049,0.0443,0.0394,0.0393,0.0434,0.0492,0.0482,0.0541,0.0573,0.0626,0.0627,0.0628,0.0632,0.0649,0.0648,0.0648,0.061,0.0605,0.0602,0,0,0,0,0,0,0.0528,0.0484,0.0509,0.0437,0.0425,0.0413,0.0398,0.0435,0.0469,0.0499,0.0554,0.0567,0.0589,0.0607,0.0608,0.063,0.0647,0.0646,0.0618,0.0614,0.061,0.0628,0.0654,0,0,0,0,0,0.0515,0.0467,0.0443,0.0391,0.0381,0.0399,0.0392,0.0418,0.0435,0.0457,0.0498,0.0546,0.0574,0.0596,0.061,0.0608,0.0661,0.0616,0.0613,0.061,0.0626,0.0711,0.0717,0.0645,0.0645,0.0645,0,0,0.0498,0.0465,0.0443,0.0388,0.0385,0.0363,0.0407,0.0384,0.0395,0.0457,0.049,0.0524,0.0569,0.0581,0.0593,0.0606,0.0653,0.0609,0.0606,0.0624,0.0711,0.0718,0.0725,0.0644,0.0644,0.0645,0,0,0.0435,0.0409,0.0362,0.0345,0.0326,0.0332,0.0331,0.033,0.0364,0.0372,0.0442,0.0486,0.0504,0.0555,0.0581,0.0562,0.0627,0.0565,0.0569,0.0651,0.0658,0.0665,0.0724,0.0737,0.0571,0.0571,0.0571,0,0.0435,0.037,0.0342,0.0301,0.0303,0.0323,0.0307,0.0311,0.033,0.0368,0.038,0.047,0.0498,0.0561,0.0561,0.0557,0.0611,0.058,0.0649,0.0657,0.0665,0.0724,0.0739,0.0569,0.0569,0.0569,0.0569,0,0.0343,0.0316,0.028,0.0253,0.0239,0.0218,0.0226,0.0242,0.0288,0.0318,0.0381,0.0421,0.0495,0.0497,0.0522,0.0596,0.0616,0.0629,0.0662,0.0671,0.0731,0.0748,0.0566,0.0567,0.0567,0.0568,0,0,0.0325,0.0242,0.0247,0.0256,0.0228,0.0218,0.0219,0.0248,0.0299,0.0314,0.0388,0.0425,0.0479,0.0512,0.0556,0.0617,0.0702,0.0648,0.0653,0.0712,0.0881,0.0717,0.072,0.0738,0.0741,0.0743,0.0893,0,0.0302,0.0238,0.0202,0.0195,0.0184,0.0202,0.0215,0.0246,0.0284,0.0345,0.0406,0.0474,0.0475,0.053,0.0587,0.0679,0.0747,0.066,0.086,0.0866,0.0724,0.0733,0.0604,0.0712,0.091,0.0912,0.0914,0,0.0264,0.0233,0.0211,0.0217,0.0218,0.0222,0.0294,0.03,0.0366,0.0402,0.047,0.0517,0.0608,0.0607,0.077,0.072,0.0803,0.0862,0.087,0.0748,0.0732,0.0739,0.0735,0.0942,0.094,0.0938,0.0936,0,0.0314,0.0265,0.0266,0.026,0.0246,0.0277,0.0293,0.0343,0.037,0.0457,0.0495,0.0596,0.0664,0.0774,0.0851,0.0845,0.1019,0.1031,0.0965,0.0955,0.0898,0.0875,0.1168,0.1168,0.1167,0.1167,0.1166,0,0.0323,0.0334,0.0299,0.0304,0.0343,0.0325,0.0384,0.0412,0.0456,0.0495,0.0544,0.0591,0.0714,0.08,0.0884,0.0944,0.1052,0.097,0.0984,0.0872,0.0846,0.1091,0.108,0.1172,0.1171,0.117,0.1169,0,0.038,0.0349,0.0355,0.0353,0.0362,0.0399,0.0415,0.0447,0.0487,0.0539,0.0568,0.0627,0.0719,0.0808,0.0981,0.0969,0.1059,0.1064,0.0893,0.088,0.0944,0.093,0.1028,0.1023,0.1019,0.1016,0.1014,0,0.0392,0.0397,0.0402,0.0412,0.0416,0.045,0.0467,0.0481,0.0492,0.0546,0.0568,0.0652,0.0689,0.0815,0.081,0.0896,0.1007,0.0828,0.0768,0.0927,0.0932,0.0923,0.0914,0.07,0.0695,0.0691,0.0688,0,0.0425,0.0438,0.044,0.0457,0.0477,0.0487,0.0502,0.0505,0.0517,0.0547,0.058,0.0615,0.0645,0.0613,0.0642,0.0682,0.0784,0.0739,0.1013,0.0703,0.0615,0.062,0.0623,0.0651,0.0655,0.0657,0.0659,0.0661,0.0462,0.0472,0.0474,0.0495,0.051,0.0515,0.0522,0.0519,0.0528,0.0521,0.0545,0.0516,0.0495,0.0418,0.0445,0.0439,0.0521,0.053,0.0546,0.0566,0.0448,0.0352,0.0319,0.0321,0.0322,0.0323,0.0325,0,0.0481,0.0487,0.0502,0.051,0.0517,0.0537,0.0533,0.0507,0.0508,0.0459,0.0462,0.0295,0.0241,0.0253,0.0154,0.0152,0.0197,0.018,0.0245,0.0278,0.0308,0.0181,-0.0019,-0.0019,-0.002,-0.002,0,0,0.0488,0.0495,0.0493,0.0502,0.0523,0.0541,0.0544,0.0494,0.0439,0.0326,0.0231,0.019,0.0172,0.004,0.0045,0.0009,0.016,0.0,0.0263,0.037,0.0401,0.0479,0.0313,0,0,0,0,0]},{"header":{"parameterUnit":"m.s-1","parameterCategory":2,"la1":30.2991,"la2":30.254,"lo1":-89.0895,"lo2":-89.0444,"dy":0.0017,"dx":0.0017,"nx":28,"ny":28,"refTime":"2024-10-12T21:00:00:Z","depth":"2","parameterNumber":3,"parameterNumberName":"V-component_of_CURRENTS"},"data":[0,0,0,0,0,0,0,0,0,0,0,0,0,0,0,0,0,0,0,0,0,0,0,0,0,0,0,0,0,0,0,0,0,0,0,0,0,0,0,0,0,0,0,0,0,0,0,0,0,0,0,0,0,0,0,0,0,0,-0.0366,-0.0366,0,-0.0409,-0.0409,-0.0409,-0.0454,-0.0454,-0.0455,-0.0456,-0.0496,-0.0496,-0.0496,0,0,0,0,0,0,0,0,0,0,0,0,0,-0.0313,-0.0314,-0.0366,-0.0366,-0.0367,-0.0409,-0.0409,-0.0409,-0.0453,-0.0454,-0.0455,-0.0456,-0.0496,-0.0496,-0.0497,0,0,0,0,0,0,0,0,0,0,0,0,0,-0.0342,-0.0314,-0.0365,-0.0395,-0.0398,-0.0409,-0.0409,-0.041,-0.0453,-0.0454,-0.0456,-0.0457,-0.0496,-0.0496,-0.0497,-0.0477,0,0,-0.0498,-0.0498,0,0,0,0,0,0,0,0,-0.0341,-0.0344,-0.039,-0.0393,-0.0397,-0.0428,-0.0405,-0.0433,-0.0453,-0.0431,-0.0456,-0.0457,-0.0473,-0.0476,-0.0479,-0.0479,-0.0481,-0.0498,-0.0499,-0.0499,-0.0499,0,0,0,0,0,0,0,-0.0339,-0.0342,-0.0381,-0.0391,-0.0395,-0.0404,-0.0409,-0.0411,-0.0444,-0.0433,-0.0436,-0.0443,-0.0475,-0.0478,-0.048,-0.0482,-0.0498,-0.0499,-0.0499,-0.0499,-0.0548,-0.0549,0,0,0,0,0,0,-0.0336,-0.034,-0.038,-0.0382,-0.0373,-0.0404,-0.041,-0.0416,-0.0444,-0.045,-0.0442,-0.0445,-0.0477,-0.048,-0.0482,-0.0494,-0.0499,-0.0499,-0.05,-0.0547,-0.0548,-0.0549,0,0,0,0,0,0,-0.0334,-0.0339,-0.0378,-0.0364,-0.037,-0.0404,-0.041,-0.0416,-0.0442,-0.0452,-0.0457,-0.0465,-0.0478,-0.0481,-0.0512,-0.0495,-0.05,-0.05,-0.0546,-0.0547,-0.0549,-0.0497,0,0,0,0,0,0,-0.0333,-0.0338,-0.0345,-0.0364,-0.037,-0.0388,-0.0409,-0.0416,-0.0444,-0.0449,-0.0472,-0.0476,-0.0479,-0.0512,-0.0513,-0.0496,-0.0501,-0.0545,-0.0547,-0.0548,-0.0498,-0.0497,-0.0496,0,0,0,0,0,-0.0331,-0.0337,-0.0345,-0.035,-0.0378,-0.0388,-0.0392,-0.0419,-0.0444,-0.0448,-0.0482,-0.0476,-0.0524,-0.0513,-0.0514,-0.0497,-0.0544,-0.0546,-0.0548,-0.0498,-0.0497,-0.0496,0,0,0,0,0,0,-0.0332,-0.0343,-0.0352,-0.0366,-0.0377,-0.0396,-0.0409,-0.0428,-0.0457,-0.0472,-0.0488,-0.0493,-0.0512,-0.0524,-0.0512,-0.0522,-0.0533,-0.0535,-0.0495,-0.0494,-0.0493,-0.0462,-0.0501,0,0,0,0,0,-0.0331,-0.0335,-0.0347,-0.0362,-0.0366,-0.039,-0.0402,-0.042,-0.0446,-0.0461,-0.048,-0.0505,-0.0516,-0.0524,-0.0538,-0.0541,-0.0513,-0.0536,-0.0535,-0.0533,-0.0514,-0.0472,-0.0464,-0.0556,-0.0556,-0.0556,0,0,-0.034,-0.0345,-0.0352,-0.0362,-0.0376,-0.0373,-0.0401,-0.0422,-0.042,-0.0459,-0.0476,-0.0503,-0.0521,-0.0526,-0.0535,-0.0536,-0.0492,-0.0536,-0.0534,-0.0515,-0.0473,-0.0464,-0.0455,-0.0558,-0.0558,-0.0557,0,0,-0.035,-0.0361,-0.0362,-0.0362,-0.0377,-0.038,-0.0389,-0.0412,-0.0423,-0.0442,-0.047,-0.0488,-0.0516,-0.0512,-0.0515,-0.052,-0.0492,-0.0539,-0.0499,-0.0459,-0.0449,-0.0441,-0.0377,-0.0363,-0.0534,-0.0534,-0.0534,0,-0.0366,-0.0363,-0.0367,-0.036,-0.0361,-0.0382,-0.038,-0.0381,-0.0415,-0.0417,-0.0446,-0.0476,-0.0495,-0.0478,-0.0488,-0.0509,-0.0483,-0.0493,-0.0452,-0.0443,-0.0435,-0.0371,-0.0357,-0.0532,-0.0532,-0.0532,-0.0533,0,-0.0363,-0.0363,-0.0365,-0.0355,-0.0352,-0.0358,-0.0352,-0.0358,-0.0379,-0.0383,-0.0389,-0.0415,-0.0432,-0.0441,-0.0465,-0.0425,-0.0423,-0.0453,-0.044,-0.0421,-0.0357,-0.0342,-0.0529,-0.0529,-0.053,-0.0531,0,0,-0.0405,-0.0369,-0.0378,-0.0363,-0.0351,-0.035,-0.0331,-0.0318,-0.0313,-0.0328,-0.0313,-0.0332,-0.0354,-0.0361,-0.0388,-0.0354,-0.0277,-0.0382,-0.0381,-0.0291,-0.0168,-0.0151,-0.0134,-0.0303,-0.03,-0.0299,-0.0138,0,-0.0411,-0.0393,-0.0372,-0.0357,-0.0342,-0.033,-0.0311,-0.0299,-0.0296,-0.0283,-0.028,-0.0287,-0.0318,-0.0338,-0.0303,-0.0296,-0.024,-0.0316,-0.0223,-0.0219,-0.0185,-0.0117,-0.0164,-0.0025,-0.0124,-0.0122,-0.012,0,-0.0419,-0.0401,-0.0388,-0.0344,-0.034,-0.0336,-0.0308,-0.0291,-0.0258,-0.0257,-0.024,-0.0244,-0.0202,-0.0244,-0.0154,-0.0206,-0.0177,-0.0156,-0.015,-0.0139,-0.0175,-0.0067,0.0005,-0.0095,-0.0097,-0.0099,-0.0101,0,-0.0442,-0.0413,-0.0403,-0.0391,-0.0348,-0.0347,-0.0334,-0.0302,-0.0284,-0.0247,-0.0231,-0.0181,-0.0164,-0.0112,-0.0071,-0.0115,0.0044,-0.0014,0.0049,0.0051,0.0031,0.0027,0.0076,0.0076,0.0075,0.0075,0.0074,0,-0.0445,-0.0436,-0.0422,-0.0415,-0.041,-0.0375,-0.0367,-0.0344,-0.0303,-0.027,-0.0234,-0.0187,-0.0135,-0.0048,-0.0018,0.0083,0.0094,0.0094,0.0102,0.0045,0.0041,-0.0022,-0.0035,0.0081,0.008,0.0078,0.0077,0,-0.0458,-0.0449,-0.0437,-0.0419,-0.0421,-0.0425,-0.0399,-0.0381,-0.0342,-0.0293,-0.0279,-0.0174,-0.0051,0.0035,0.0142,0.0154,0.0239,0.0271,0.0217,0.0216,0.0211,0.0197,0.0366,0.0368,0.037,0.0372,0.0373,0,-0.0447,-0.0449,-0.0462,-0.0472,-0.0472,-0.0472,-0.0468,-0.0425,-0.0394,-0.0281,-0.0248,-0.0108,0.0018,0.0217,0.0262,0.0379,0.0347,0.0381,0.0283,0.0254,0.0245,0.0229,0.0213,0.0285,0.0285,0.0285,0.0286,0,-0.0426,-0.0458,-0.0457,-0.0493,-0.0508,-0.0498,-0.0485,-0.0461,-0.0389,-0.0318,-0.0185,-0.0066,0.0127,0.0251,0.0393,0.0428,0.0354,0.0391,0.0403,0.0204,0.0186,0.0173,0.016,0.0289,0.0288,0.0288,0.0288,0.0288,-0.0428,-0.0438,-0.0469,-0.0497,-0.0516,-0.0511,-0.0485,-0.0436,-0.0361,-0.0205,-0.0122,0.0077,0.0188,0.0408,0.0445,0.0428,0.0429,0.0392,0.0387,0.0383,0.0331,0.0315,0.0435,0.0435,0.0436,0.0436,0.0437,0,-0.0411,-0.0435,-0.0459,-0.0485,-0.0499,-0.0518,-0.0475,-0.041,-0.0302,-0.0154,0.0006,0.0169,0.0328,0.0413,0.0384,0.0399,0.0353,0.0391,0.0311,0.0308,0.0306,0.0246,0.033,0.033,0.033,0.033,0,0,-0.0401,-0.0418,-0.0431,-0.0454,-0.0482,-0.0466,-0.0436,-0.0323,-0.0209,-0.0033,0.01,0.0329,0.0388,0.0371,0.0372,0.0328,0.0307,0.0319,0.04,0.03,0.0297,0.0304,0.0209,0,0,0,0,0]}],[{"header":{"parameterUnit":"m.s-1","parameterCategory":2,"la1":30.2991,"la2":30.254,"lo1":-89.0895,"lo2":-89.0444,"dy":0.0017,"dx":0.0017,"nx":28,"ny":28,"refTime":"2024-10-12T21:00:00:Z","depth":"4","parameterNumber":2,"parameterNumberName":"U-component_of_CURRENTS"},"data":[0,0,0,0,0,0,0,0,0,0,0,0,0,0,0,0,0,0,0,0,0,0,0,0,0,0,0,0,0,0,0,0,0,0,0,0,0,0,0,0,0,0,0,0,0,0,0,0,0,0,0,0,0,0,0,0,0,0,-0.0627,-0.0627,0,-0.0621,-0.0621,-0.0621,-0.0616,-0.0616,-0.0616,-0.0616,-0.0614,-0.0614,-0.0613,0,0,0,0,0,0,0,0,0,0,0,0,0,-0.0588,-0.0589,-0.0627,-0.0627,-0.0627,-0.0621,-0.0621,-0.0621,-0.0616,-0.0616,-0.0616,-0.0616,-0.0614,-0.0614,-0.0613,0,0,0,0,0,0,0,0,0,0,0,0,0,-0.0595,-0.0589,-0.0627,-0.0625,-0.0625,-0.0621,-0.0621,-0.062,-0.0616,-0.0616,-0.0616,-0.0616,-0.0614,-0.0614,-0.0613,-0.0609,0,0,-0.0613,-0.0613,0,0,0,0,0,0,0,0,-0.0594,-0.0596,-0.0625,-0.0625,-0.0625,-0.0621,-0.0606,-0.0617,-0.0616,-0.0618,-0.0616,-0.0616,-0.0617,-0.0617,-0.0613,-0.0609,-0.0609,-0.0613,-0.0612,-0.0612,-0.0612,0,0,0,0,0,0,0,-0.0594,-0.0596,-0.0623,-0.0625,-0.0625,-0.0609,-0.061,-0.0608,-0.0616,-0.0618,-0.0618,-0.0619,-0.0617,-0.0613,-0.0613,-0.0609,-0.0613,-0.0612,-0.0612,-0.0612,-0.0648,-0.0649,0,0,0,0,0,0,-0.06,-0.0596,-0.0623,-0.0623,-0.0611,-0.061,-0.0611,-0.0621,-0.0616,-0.0615,-0.0619,-0.0619,-0.0614,-0.0613,-0.0613,-0.0604,-0.0612,-0.0612,-0.0612,-0.0647,-0.0648,-0.0649,0,0,0,0,0,0,-0.0599,-0.0603,-0.0623,-0.061,-0.0611,-0.0611,-0.0621,-0.0621,-0.0626,-0.0617,-0.0617,-0.0627,-0.0614,-0.0613,-0.0624,-0.0605,-0.0612,-0.0612,-0.0645,-0.0647,-0.0648,-0.059,0,0,0,0,0,0,-0.0599,-0.0603,-0.0616,-0.0611,-0.0613,-0.0628,-0.0621,-0.062,-0.0627,-0.0627,-0.0623,-0.0622,-0.0614,-0.0624,-0.0623,-0.0604,-0.0612,-0.0644,-0.0646,-0.0648,-0.059,-0.0589,-0.0588,0,0,0,0,0,-0.0597,-0.0612,-0.0617,-0.062,-0.0629,-0.0628,-0.0628,-0.0626,-0.0627,-0.0631,-0.0633,-0.0623,-0.0637,-0.0624,-0.0623,-0.0604,-0.0643,-0.0645,-0.0648,-0.0591,-0.059,-0.0588,0,0,0,0,0,0,-0.0603,-0.0613,-0.0618,-0.0636,-0.0637,-0.0628,-0.0635,-0.0633,-0.0636,-0.064,-0.0631,-0.0631,-0.0637,-0.0642,-0.0629,-0.0628,-0.064,-0.0643,-0.0598,-0.0596,-0.0595,-0.0556,-0.0612,0,0,0,0,0,-0.0611,-0.0628,-0.0628,-0.0645,-0.0647,-0.0644,-0.0645,-0.0642,-0.0642,-0.0644,-0.0644,-0.0648,-0.0645,-0.0638,-0.0648,-0.0639,-0.0637,-0.0633,-0.0632,-0.063,-0.0603,-0.0577,-0.0569,-0.0657,-0.0657,-0.0657,0,0,-0.0618,-0.0627,-0.0637,-0.0648,-0.065,-0.065,-0.0645,-0.065,-0.0656,-0.0644,-0.0659,-0.065,-0.0649,-0.0641,-0.0643,-0.0638,-0.0618,-0.0633,-0.0631,-0.0604,-0.0578,-0.0569,-0.0561,-0.0659,-0.0658,-0.0658,0,0,-0.0629,-0.065,-0.066,-0.0661,-0.0666,-0.0664,-0.0668,-0.0666,-0.0674,-0.0682,-0.0673,-0.0647,-0.0665,-0.0633,-0.0624,-0.0627,-0.0623,-0.0645,-0.0584,-0.056,-0.0551,-0.0543,-0.0571,-0.0566,-0.063,-0.063,-0.063,0,-0.0636,-0.065,-0.0662,-0.0665,-0.0673,-0.0672,-0.0678,-0.0682,-0.0685,-0.0674,-0.0691,-0.0656,-0.0653,-0.0601,-0.0591,-0.0616,-0.0621,-0.0579,-0.0552,-0.0544,-0.0536,-0.0567,-0.0562,-0.0627,-0.0628,-0.0628,-0.0628,0,-0.0643,-0.0656,-0.0663,-0.0672,-0.0684,-0.0688,-0.0698,-0.0702,-0.071,-0.069,-0.0663,-0.0642,-0.0597,-0.0603,-0.0588,-0.0525,-0.0556,-0.056,-0.054,-0.0523,-0.0559,-0.0554,-0.0624,-0.0625,-0.0626,-0.0626,0,0,-0.0641,-0.0663,-0.0664,-0.0675,-0.0689,-0.0698,-0.0712,-0.0701,-0.0681,-0.0672,-0.0634,-0.0594,-0.0537,-0.0523,-0.0494,-0.0459,-0.0419,-0.0468,-0.0468,-0.047,-0.0396,-0.0408,-0.0405,-0.0406,-0.0404,-0.0402,-0.0457,0,-0.0637,-0.0646,-0.0667,-0.0686,-0.069,-0.0706,-0.0712,-0.0702,-0.0689,-0.0652,-0.0598,-0.055,-0.0523,-0.0474,-0.0428,-0.0428,-0.0397,-0.0406,-0.0435,-0.0437,-0.0425,-0.0395,-0.0396,-0.0453,-0.0452,-0.0452,-0.0451,0,-0.0625,-0.0636,-0.0659,-0.0683,-0.0689,-0.07,-0.0699,-0.0692,-0.0632,-0.0614,-0.0525,-0.0487,-0.0403,-0.0398,-0.0347,-0.0352,-0.0349,-0.036,-0.0362,-0.0376,-0.0437,-0.0469,-0.0443,-0.0443,-0.0444,-0.0445,-0.0445,0,-0.0602,-0.0628,-0.0655,-0.0665,-0.0692,-0.0705,-0.0693,-0.0658,-0.0646,-0.055,-0.053,-0.0425,-0.0397,-0.0347,-0.0359,-0.0334,-0.0356,-0.0335,-0.0351,-0.0356,-0.0354,-0.0362,-0.0287,-0.0287,-0.0287,-0.0287,-0.0287,0,-0.0577,-0.0594,-0.0645,-0.0654,-0.0675,-0.068,-0.0661,-0.0638,-0.0583,-0.0555,-0.0473,-0.045,-0.0379,-0.0389,-0.0363,-0.0364,-0.0359,-0.0323,-0.0347,-0.0341,-0.0346,-0.0354,-0.0361,-0.0289,-0.0288,-0.0288,-0.0288,0,-0.0543,-0.0575,-0.0616,-0.0657,-0.0668,-0.0671,-0.0656,-0.0629,-0.0577,-0.0545,-0.0515,-0.0476,-0.0455,-0.0445,-0.0418,-0.0399,-0.0388,-0.0397,-0.0443,-0.0473,-0.0399,-0.0403,-0.0365,-0.0365,-0.0365,-0.0365,-0.0366,0,-0.0525,-0.0545,-0.0623,-0.0653,-0.0677,-0.0668,-0.0662,-0.0618,-0.06,-0.0573,-0.0577,-0.0547,-0.0516,-0.0497,-0.0475,-0.0443,-0.0429,-0.0448,-0.0332,-0.0368,-0.0396,-0.04,-0.0403,-0.0366,-0.0366,-0.0366,-0.0366,0,-0.0504,-0.0553,-0.0586,-0.0634,-0.0666,-0.0685,-0.067,-0.0641,-0.0603,-0.0612,-0.0573,-0.0524,-0.0528,-0.0471,-0.0484,-0.0455,-0.0432,-0.0449,-0.0446,-0.0337,-0.037,-0.0398,-0.0401,-0.0367,-0.0367,-0.0367,-0.0367,0,-0.0499,-0.052,-0.057,-0.0605,-0.0653,-0.0662,-0.0653,-0.0629,-0.0597,-0.0568,-0.0577,-0.0537,-0.0537,-0.0485,-0.0498,-0.0467,-0.0405,-0.0374,-0.0373,-0.0371,-0.0343,-0.0384,-0.0386,0,0,0,0,0,-0.0477,-0.0479,-0.0525,-0.0554,-0.0602,-0.0636,-0.0656,-0.0645,-0.0628,-0.059,-0.0559,-0.0539,-0.048,-0.0473,-0.0426,-0.0487,-0.042,-0.0436,-0.0387,-0.0373,-0.0372,-0.0335,0,0,0,0,0,0,-0.0465,-0.049,-0.0502,-0.0503,-0.0519,-0.0561,-0.0577,-0.0584,-0.0545,-0.0536,-0.0497,-0.0524,-0.0468,-0.0487,-0.0417,-0.0418,-0.0379,-0.0432,-0.0431,-0.0374,-0.0373,-0.0372,-0.0333,0,0,0,0,0]},{"header":{"parameterUnit":"m.s-1","parameterCategory":2,"la1":30.2991,"la2":30.254,"lo1":-89.0895,"lo2":-89.0444,"dy":0.0017,"dx":0.0017,"nx":28,"ny":28,"refTime":"2024-10-12T21:00:00:Z","depth":"4","parameterNumber":3,"parameterNumberName":"V-component_of_CURRENTS"},"data":[0,0,0,0,0,0,0,0,0,0,0,0,0,0,0,0,0,0,0,0,0,0,0,0,0,0,0,0,0,0,0,0,0,0,0,0,0,0,0,0,0,0,0,0,0,0,0,0,0,0,0,0,0,0,0,0,0,0,0.0325,0.0325,0,0.0318,0.0317,0.0317,0.0308,0.0308,0.0308,0.0308,0.0332,0.0333,0.0334,0,0,0,0,0,0,0,0,0,0,0,0,0,0.0327,0.0327,0.0325,0.0325,0.0325,0.0318,0.0317,0.0317,0.0308,0.0308,0.0308,0.0308,0.0332,0.0333,0.0334,0,0,0,0,0,0,0,0,0,0,0,0,0,0.0323,0.0327,0.0325,0.032,0.0319,0.0318,0.0317,0.0317,0.0309,0.0308,0.0308,0.0308,0.0332,0.0333,0.0334,0.0344,0,0,0.0337,0.0338,0,0,0,0,0,0,0,0,0.0324,0.0323,0.0321,0.032,0.032,0.0314,0.0327,0.0328,0.0309,0.0312,0.0308,0.0308,0.0329,0.0331,0.0329,0.0345,0.0346,0.0337,0.0338,0.0339,0.0339,0,0,0,0,0,0,0,0.0324,0.0324,0.0322,0.0321,0.032,0.0316,0.0315,0.0327,0.0322,0.0312,0.0311,0.0311,0.0329,0.0328,0.0329,0.0347,0.0337,0.0338,0.0339,0.0339,0.0359,0.0359,0,0,0,0,0,0,0.0326,0.0324,0.0322,0.0322,0.0322,0.0316,0.0316,0.0316,0.0322,0.0322,0.0311,0.0311,0.0326,0.0328,0.033,0.0325,0.0339,0.034,0.034,0.036,0.0359,0.0359,0,0,0,0,0,0,0.0326,0.0326,0.0323,0.0323,0.0322,0.0317,0.0317,0.0316,0.0317,0.0321,0.0322,0.0313,0.0326,0.0329,0.0337,0.0327,0.034,0.0341,0.036,0.036,0.0359,0.0327,0,0,0,0,0,0,0.0326,0.0326,0.033,0.0323,0.0322,0.0322,0.0317,0.0316,0.0317,0.0316,0.0323,0.0325,0.0326,0.0335,0.0338,0.0329,0.0342,0.036,0.036,0.0359,0.0329,0.0326,0.0324,0,0,0,0,0,0.0326,0.0328,0.0331,0.0331,0.0328,0.0322,0.0321,0.0317,0.0317,0.0317,0.0319,0.0325,0.0335,0.0336,0.0339,0.033,0.036,0.036,0.0359,0.033,0.0327,0.0324,0,0,0,0,0,0,0.0332,0.0328,0.033,0.0332,0.0329,0.0321,0.0323,0.032,0.0321,0.0322,0.0326,0.0328,0.0328,0.0339,0.034,0.0336,0.0348,0.0348,0.0324,0.0321,0.0319,0.0323,0.0343,0,0,0,0,0,0.0336,0.0338,0.0333,0.0337,0.0336,0.0332,0.0331,0.0326,0.0324,0.0324,0.033,0.0334,0.033,0.0333,0.0336,0.0341,0.034,0.0337,0.0335,0.0333,0.0339,0.0305,0.03,0.0358,0.0358,0.0358,0,0,0.0338,0.0339,0.0339,0.0338,0.0338,0.0326,0.0331,0.0328,0.0325,0.0329,0.0333,0.0328,0.0329,0.0324,0.0326,0.0333,0.0319,0.0332,0.033,0.0338,0.0304,0.0298,0.0293,0.0358,0.0358,0.0358,0,0,0.0335,0.0346,0.034,0.0336,0.0333,0.033,0.033,0.0325,0.0333,0.0341,0.0328,0.0313,0.0336,0.0311,0.0307,0.0297,0.0305,0.0307,0.0299,0.0266,0.0261,0.0256,0.0258,0.0254,0.0307,0.0307,0.0307,0,0.0336,0.0328,0.0339,0.0327,0.0324,0.033,0.0318,0.0325,0.0324,0.0327,0.0344,0.0328,0.0324,0.029,0.0286,0.0289,0.0291,0.0307,0.0261,0.0256,0.0252,0.0255,0.0251,0.0305,0.0305,0.0305,0.0306,0,0.032,0.0313,0.0311,0.0299,0.0301,0.0292,0.03,0.0309,0.0326,0.0323,0.0317,0.0309,0.0301,0.0287,0.029,0.025,0.0269,0.0258,0.0265,0.0244,0.0249,0.0245,0.0303,0.0303,0.0304,0.0304,0,0,0.0313,0.0299,0.0299,0.0291,0.0284,0.0285,0.0291,0.029,0.029,0.03,0.0294,0.0276,0.0277,0.0272,0.0258,0.0225,0.0193,0.0237,0.0236,0.0234,0.0151,0.0162,0.0159,0.0175,0.0174,0.0173,0.0171,0,0.0293,0.0264,0.0272,0.0255,0.0236,0.0255,0.0265,0.0269,0.0281,0.0279,0.0268,0.027,0.0271,0.0275,0.0236,0.02,0.018,0.0197,0.0177,0.0177,0.0183,0.0153,0.0169,0.0168,0.0167,0.0166,0.0166,0,0.0268,0.0251,0.0237,0.0231,0.0231,0.0259,0.0274,0.0279,0.0276,0.0283,0.0271,0.0267,0.0233,0.0244,0.0181,0.0197,0.0185,0.0156,0.0155,0.0175,0.0179,0.0191,0.0159,0.0159,0.016,0.016,0.0161,0,0.0248,0.0228,0.0225,0.0221,0.0221,0.027,0.0298,0.0305,0.0308,0.0311,0.0299,0.0261,0.0261,0.0219,0.0191,0.0189,0.0122,0.0108,0.0108,0.011,0.0116,0.0121,0.007,0.007,0.007,0.007,0.007,0,0.0215,0.0204,0.0245,0.0242,0.0287,0.0297,0.0346,0.0361,0.0356,0.0331,0.0329,0.0274,0.0255,0.0215,0.0185,0.0142,0.0127,0.0106,0.01,0.0106,0.011,0.0114,0.0119,0.007,0.007,0.007,0.007,0,0.0189,0.0196,0.0196,0.024,0.0289,0.0337,0.0416,0.041,0.042,0.0388,0.0395,0.0304,0.0248,0.0235,0.0163,0.0146,0.0097,0.0093,0.013,0.0127,0.0112,0.0116,0.0079,0.0079,0.0079,0.008,0.008,0,0.0164,0.0169,0.023,0.0278,0.0334,0.0415,0.0458,0.0474,0.0434,0.0369,0.0315,0.0282,0.023,0.0146,0.0113,0.0101,0.0095,0.0101,0.0078,0.011,0.0108,0.0111,0.0115,0.008,0.008,0.008,0.008,0,0.013,0.0173,0.0174,0.0282,0.0368,0.0402,0.0457,0.0418,0.0382,0.0396,0.0265,0.0232,0.0164,0.0104,0.014,0.0101,0.0104,0.0102,0.0101,0.0079,0.0111,0.0109,0.0112,0.008,0.008,0.008,0.008,0,0.0119,0.0127,0.0173,0.0274,0.0347,0.0361,0.0388,0.0347,0.0321,0.0253,0.0193,0.0148,0.0133,0.0098,0.0078,0.0106,0.0088,0.0089,0.0089,0.0088,0.0091,0.0132,0.0099,0,0,0,0,0,0.0115,0.0126,0.0179,0.0247,0.0303,0.0368,0.0352,0.0338,0.0301,0.0226,0.0222,0.0164,0.0135,0.0064,0.0092,0.0056,0.0082,0.0086,0.0081,0.0083,0.0082,0.0084,0,0,0,0,0,0,0.0106,0.0128,0.0149,0.0209,0.0266,0.0306,0.0293,0.0268,0.0198,0.0183,0.0148,0.0196,0.0143,0.0163,0.0111,0.0108,0.0108,0.0088,0.0088,0.0083,0.0083,0.0082,0.0084,0,0,0,0,0]}]]